Regional Weather Roundup
Issued by NWS

Home | Current Version | Previous Version | Text Only | Print | Product List | Glossary On
Versions: 1 2 3 4 5 6 7 8 9 10 11 12 13 14 15 16 17 18 19 20 21 22 23 24 25 26 27 28 29 30 31 32 33 34 35 36 37 38 39 40 41 42 43 44 45 46 47 48 49 50
000
ASUS44 KFWD 062015
RWRTX
NORTH TEXAS HOURLY WEATHER ROUNDUP
NATIONAL WEATHER SERVICE FORT WORTH TX
200 PM CST TUE DEC 06 2016

NOTE: "FAIR" INDICATES FEW OR NO CLOUDS BELOW 12,000 FEET WITH NO
SIGNIFICANT WEATHER AND/OR OBSTRUCTIONS TO VISIBILITY.

TXZ118-119-062100-
DALLAS/FORT WORTH METROPLEX

CITY           SKY/WX    TMP DP  RH WIND       PRES   REMARKS
DFW AIRPORT    CLOUDY    49  42  77 N14       29.98S
DALLAS LOVE    CLOUDY    50  42  74 N14       29.98F
FTW MEACHAM    CLOUDY    48  40  73 NW10      30.00S
DAL-EXECUTIVE  CLOUDY    52  44  74 N14       29.97S
FTW-ALLIANCE   CLOUDY    49  40  71 N9        29.99F
FTW-NAS-JRB    CLOUDY    47  41  80 NW13G23   30.01F
FTW-SPINKS     CLOUDY    48  46  93 N12G18    30.00S
ARLINGTON      CLOUDY    49  42  77 NW14      29.99S
GRAND PRAIRIE  PTSUNNY   48  41  76 N7        30.00S
ADDISON        CLOUDY    50  45  81 N13       29.99S
MESQUITE       CLOUDY    52  43  71 N12       29.98F
LANCASTER      CLOUDY    52  43  71 N9        29.99S
$$

TXZ091>094-102>105-117-120-121-131>134-062100-
NORTH CENTRAL TEXAS

CITY           SKY/WX    TMP DP  RH WIND       PRES   REMARKS
SHRMAN/DENISON CLOUDY    48  40  75 N14       30.01F
BOWIE          MOSUNNY   49  32  53 N10G18    30.02S
BRIDGEPORT     PTSUNNY   48  38  68 N8        30.03F
DECATUR        SUNNY     50  36  59 N8        30.00S
DENTON         PTSUNNY   51  40  65 N14       30.00F
MCKINNEY       CLOUDY    50  43  77 N13       29.98F
BONHAM         CLOUDY    48  39  71 N12G20    29.98F
GREENVILLE       N/A     52  43  71 N13       29.98R
ROCKWALL       CLOUDY    51  44  78 N9        29.98S
TERRELL        CLOUDY    52  43  71 NE9       29.97S
WAXAHACHIE     CLOUDY    51  44  77 N8        29.99S
CLEBURNE       CLOUDY    46  45  93 NW13      30.01R
GRANBURY       CLOUDY    46  41  82 NW12      30.03S
$$

TXZ083>090-098>101-113>116-127>130-139>142-154-155-062100-
WESTERN NORTH TEXAS

CITY           SKY/WX    TMP DP  RH WIND       PRES   REMARKS
WICHITA FALLS  PTSUNNY   47  26  44 N17       30.05S
WF-KICKAPOO    SUNNY     47  26  44 N14G20    30.07S
VERNON         SUNNY     46  21  37 N12G18    30.08F
ABILENE        CLOUDY    45  35  68 N7        30.05F
CISCO          CLOUDY    41  36  81 N10       30.03F WCI  35
BRECKENRIDGE   MOSUNNY   50  34  54 N7        30.04S
GRAHAM         SUNNY     49  33  54 NW12      30.03S
MINERAL WELLS  CLOUDY    45  38  76 NW12      30.01F WCI  39
STEPHENVILLE   CLOUDY    42  40  91 NW12      30.04R WCI  36
COMANCHE       CLOUDY    42  42 100 N13       30.03S WCI  35
COLEMAN        CLOUDY    43  38  83 N10       30.04S WCI  37
$$

TXZ143>147-156>162-174-175-062100-
CENTRAL TEXAS

CITY           SKY/WX    TMP DP  RH WIND       PRES   REMARKS
WACO           CLOUDY    52  47  83 N12       29.99R
WACO-TSTC      CLOUDY    52  46  82 N9        29.99R
WACO-MCGREGOR  CLOUDY    51  47  86 N8        29.99S
HILLSBORO      CLOUDY    52  45  77 N13       29.98S
CORSICANA      CLOUDY    54  46  74 N12       29.98S
MEXIA          CLOUDY    50  45  82 NW12G18   29.97R
HEARNE         CLOUDY    55  49  82 N6        29.96F
CAMERON        CLOUDY    53  48  84 N14G21    29.97R
TEMPLE         CLOUDY    52  46  82 N9        29.98F
KILLEEN        NOT AVBL
KILLEEN-SKYLRK CLOUDY    48  46  93 N10       29.98S
GATESVILLE     PTSUNNY   52  46  82 N7        30.01S
HAMILTON       CLOUDY    48  47  97 N10       30.00S
$$

TXZ095>097-106>112-122>126-135>138-148>153-164>167-062100-
EAST TEXAS

CITY           SKY/WX    TMP DP  RH WIND       PRES   REMARKS
PARIS          CLOUDY    52  43  71 N14       29.96F
SULPHUR SPRNGS CLOUDY    53  44  71 N15       29.98S
MOUNT PLEASANT PTSUNNY   54  44  69 N3        29.96F
GILMER         CLOUDY    50  46  85 N5        29.95F
MINEOLA        CLOUDY    52  46  82 CALM      29.95F
TYLER          CLOUDY    50  48  93 NE8       29.96S FOG
LONGVIEW       CLOUDY    51  49  92 N6        29.95  FOG
MARSHALL       CLOUDY    50  46  87 N5        29.97S
ATHENS         CLOUDY    48  48 100 NE5       29.96R FOG
PALESTINE      CLOUDY    50  50  97 N6        29.97S FOG
JACKSONVILLE   DRIZZLE   49  49 100 N5        29.95F
HENDERSON      CLOUDY    50  50 100 N5        29.96S FOG
CENTER         CLOUDY    54  52  95 NE3       29.95R FOG
NACOGDOCHES    CLOUDY    54  50  87 N5        29.93R
LUFKIN         CLOUDY    52  49  89 NW6       29.93S
$$

SUPPLEMENTAL OBSERVATIONS (CENTRAL)

CITY           SKY/WX    TMP DP  RH WIND       PRES   REMARKS
CADDO GRASSLND   N/A     50  41  71 N6          N/A
PAT MAYSE LAKE   N/A     48  45  87 NW13        N/A
GREENVILLE       N/A     52  43  71 VRB14       N/A
MCGREGOR         N/A     52  50  93 N6G16       N/A
TEMPLE           N/A     52  46  82 N3G13       N/A
$$

SUPPLEMENTAL OBSERVATIONS (WEST)

CITY           SKY/WX    TMP DP  RH WIND       PRES   REMARKS
MILLERS CREEK    N/A     46  28  49 N10G20      N/A
POSSUM KINGDOM   N/A     48  36  61 N7          N/A
LBJ GRASSLAND    N/A     52  37  58 N8          N/A
GRANBURY         N/A     46  41  81 NW13        N/A
HAMBY            N/A     46  32  57 N7G16       N/A
$$

SUPPLEMENTAL OBSERVATIONS (EAST)

CITY           SKY/WX    TMP DP  RH WIND       PRES   REMARKS
TEXARKANA        N/A     54  46  76 N5          N/A
LINDEN           N/A     54  48  82 CALM        N/A
GILMER           N/A     52  46  82 N3G12       N/A
HENDERSON        N/A     50  48  93 N6          N/A
LUFKIN           N/A     54  48  82 MISG        N/A
N SABINE NF      N/A     54  50  87 MISG        N/A
$$

SUPPLEMENTAL OBSERVATIONS ARE A COLLECTION OF AUTOMATED INSTRUMENTS
THAT ARE MAINTAINED BY A VARIETY OF FEDERAL AND STATE AGENCIES.
CERTAIN ELEMENTS...SUCH AS HUMIDITY VALUES AND SUSTAINED WIND
SPEEDS...MAY BE APPROXIMATED.





USA.gov is the U.S. government's official web portal to all federal, state and local government web resources and services.